Dewpoint
69 69 69 68 67 67 69 67 66 68 69 67 66 65 64 68 64 63 61 62 60 60 60 58 64 70 70 72 68 69 70 73 70 68 71 68 74 74 72 74 74 75 75 74 75 75 75 75 75 75 74 74 72 71 71 68 65 65 64 63 67 67 66 66 67 67 66 65 66 68 69 69 69 70
72 70 70 69 67 69 67 66 66 69 70 67 66 67 67 68 67 65 64 64 62 61 61 59 61 68 70 67 67 67 68 75 70 70 71 71 71 73 72 73 73 74 74 74 74 75 75 75 75 75 75 74 74 73 72 70 67 66 65 64 66 66 66 66 66 66 66 66 66 67 67 68 68 68
72 73 71 72 69 70 68 69 67 68 69 67 66 67 68 69 70 69 67 65 65 64 63 62 62 63 67 66 66 65 66 70 70 71 73 73 74 74 77 74 73 73 73 73 73 73 74 74 74 74 74 74 74 74 73 71 70 68 67 66 65 65 66 66 66 65 66 66 66 67 67 68 68 68
72 74 73 74 72 71 70 70 68 69 70 69 67 67 68 70 70 70 70 69 69 68 64 64 64 63 66 68 68 68 67 70 74 73 71 75 74 73 69 75 74 73 72 72 71 71 72 71 71 72 73 73 74 73 73 72 71 70 68 67 66 67 66 65 66 67 66 66 66 67 67 67 67 67
74 75 74 74 75 74 72 70 69 68 70 71 69 69 68 67 70 70 71 69 69 70 69 67 65 66 67 66 69 69 68 67 70 71 71 72 69 69 69 72 72 72 72 71 71 70 70 70 70 71 71 72 73 73 72 72 71 71 69 69 67 66 65 66 66 67 66 66 66 67 67 67 67 67
74 74 74 73 73 75 75 72 70 69 67 68 67 68 69 69 70 73 71 71 70 70 71 68 70 67 68 67 70 70 69 69 71 69 70 68 67 68 70 69 76 71 72 71 71 70 70 69 68 69 70 71 72 72 71 70 69 70 69 68 66 65 64 64 65 66 66 66 66 66 67 67 66 66
75 74 73 72 72 71 73 74 71 70 71 70 71 71 71 72 71 73 74 73 72 71 71 72 69 69 70 70 70 71 69 72 70 71 69 66 64 66 66 66 64 70 71 71 71 70 70 69 68 68 68 69 70 70 70 69 68 68 67 66 65 64 63 62 65 66 67 66 66 66 66 66 66 66
74 73 74 73 72 73 74 74 73 73 72 72 73 73 74 74 74 74 75 75 74 73 71 73 72 71 70 70 70 69 70 68 69 69 70 68 67 66 64 64 62 69 70 71 70 70 70 69 68 68 68 68 67 68 68 67 66 65 66 65 64 63 62 60 61 63 65 66 66 66 66 66 66 66
74 74 73 73 73 74 73 73 71 71 73 73 72 72 73 73 73 74 74 75 75 74 72 71 72 72 72 71 71 70 68 67 67 69 71 69 69 70 66 61 59 64 68 70 70 69 69 69 69 68 67 67 66 66 66 66 65 65 64 63 62 62 61 60 59 60 62 62 63 64 63 66 66 66
74 73 74 73 73 73 73 72 72 74 73 73 71 72 73 72 73 74 74 74 75 74 72 73 70 72 69 70 71 71 71 66 65 67 68 68 69 71 68 64 59 57 56 57 61 69 69 68 67 67 68 67 66 65 65 66 65 64 62 61 61 62 61 59 58 58 59 59 60 61 62 63 64 65
72 71 71 73 73 73 73 72 72 73 73 72 73 73 73 72 71 70 70 70 71 71 70 69 69 68 67 69 66 67 70 72 71 69 67 68 67 68 70 70 66 63 60 63 66 64 66 70 71 65 66 66 66 65 65 64 64 63 62 60 60 60 59 60 58 57 57 58 58 59 59 60 63 64
71 71 71 70 71 72 74 73 73 72 72 74 73 73 72 72 71 70 68 69 69 69 68 67 65 67 68 69 68 67 68 68 68 66 65 66 68 69 71 72 70 70 72 68 58 65 67 67 69 66 66 66 66 65 65 65 66 65 63 61 62 62 60 59 58 57 56 57 57 58 59 59 59 62
71 71 70 70 69 72 72 73 75 76 77 73 72 73 73 73 72 72 70 69 70 70 68 68 68 66 67 67 66 63 64 65 65 67 68 70 69 68 68 70 71 70 69 69 64 64 66 65 64 63 66 73 71 70 67 69 68 66 63 62 63 62 61 59 58 58 57 56 56 56 57 58 58 58
69 68 68 67 69 74 73 75 78 78 76 76 74 74 74 73 73 72 71 71 69 69 69 67 65 64 62 61 64 63 63 64 66 64 67 68 68 69 70 70 71 70 68 69 73 72 70 66 66 67 67 65 75 67 73 72 70 68 64 63 63 62 62 60 59 58 57 56 56 56 55 56 57 57
70 69 68 68 70 75 77 77 78 78 77 77 76 76 76 76 75 73 71 71 71 70 68 66 66 63 64 65 66 64 61 61 63 64 67 67 67 69 69 68 71 72 72 74 74 74 74 74 71 71 69 68 67 66 66 68 68 67 66 64 64 63 62 62 60 59 57 57 57 56 55 55 56 56
69 69 67 66 64 66 69 69 75 79 78 76 76 76 76 76 76 75 75 74 72 71 67 67 66 65 65 65 67 62 62 64 65 68 69 70 70 70 69 69 69 71 72 72 73 71 73 73 70 71 69 69 68 64 67 67 67 66 65 65 64 63 62 62 62 61 59 58 58 57 57 56 56 56
72 72 71 70 68 64 75 72 71 74 75 78 76 76 77 76 74 70 70 72 75 73 73 71 69 68 68 69 69 68 71 74 73 72 71 71 70 70 70 69 69 71 74 73 71 69 70 72 71 68 67 68 67 65 65 66 66 65 65 64 63 63 63 62 62 62 61 60 58 56 56 57 57 56
71 73 73 73 73 71 72 74 74 74 75 75 76 77 77 76 76 75 70 69 70 72 71 72 72 73 74 73 74 76 76 75 74 73 72 74 72 72 72 73 73 74 70 70 69 71 70 70 67 68 69 67 69 71 67 65 65 64 64 63 63 62 62 62 61 61 61 60 59 57 56 55 55 55
72 73 74 75 73 74 75 75 77 75 74 75 74 75 74 72 72 72 73 73 72 72 70 71 72 73 74 74 75 75 75 74 75 74 75 76 76 75 75 75 74 73 74 73 72 69 69 70 68 67 67 64 67 68 66 66 65 65 64 63 63 62 61 62 61 61 60 60 59 58 56 55 54 54
76 76 75 76 75 75 76 71 70 72 74 73 73 74 74 74 72 70 72 69 70 72 69 70 69 69 70 66 72 73 69 71 72 72 72 72 73 74 73 71 69 68 68 69 67 66 68 70 66 67 67 68 68 70 71 66 66 65 64 64 63 61 60 61 61 61 60 60 59 58 57 55 54 53
74 74 75 75 73 73 75 66 61 65 72 74 73 74 73 72 70 69 68 69 66 66 64 64 64 63 62 62 61 61 62 68 70 71 70 69 69 69 69 69 68 68 68 67 68 66 66 68 69 67 67 69 70 70 71 71 65 64 64 63 63 61 60 60 60 60 60 60 59 58 57 56 54 54
75 75 75 75 75 75 72 62 61 63 72 75 75 74 73 72 71 71 70 68 70 64 62 62 62 62 62 62 62 62 61 61 65 71 69 68 68 69 69 68 68 67 69 68 68 70 68 69 71 70 70 71 69 68 70 70 70 63 63 62 62 61 61 60 60 60 60 59 59 58 57 56 55 60
73 75 75 75 73 72 66 58 59 61 68 73 74 73 73 70 70 72 73 72 72 73 72 73 77 75 69 73 74 74 68 66 69 72 71 70 70 70 69 70 70 68 66 69 72 71 72 69 69 71 70 68 68 70 71 71 72 73 73 73 72 62 61 60 59 58 59 59 58 58 57 55 55 65
72 74 73 69 63 60 58 56 55 56 59 68 70 71 71 70 71 70 70 72 72 72 71 72 72 72 73 73 74 74 73 73 73 73 73 73 73 72 72 70 71 70 70 71 72 72 71 71 70 73 70 69 68 69 70 72 72 72 72 73 71 66 63 62 60 59 58 57 57 57 57 55 55 67
71 71 73 69 60 57 56 55 53 53 55 59 68 68 69 69 67 65 67 69 70 69 70 72 72 72 73 73 73 73 75 73 72 76 75 75 76 74 72 71 71 71 70 72 72 74 72 71 71 71 71 72 68 69 71 71 72 71 73 73 73 73 74 74 71 73 59 57 56 56 55 55 54 62
69 70 71 69 64 55 54 52 50 50 52 57 67 72 56 56 59 68 69 69 67 65 65 64 66 67 66 65 66 65 67 67 68 69 73 75 77 77 76 75 72 72 71 79 69 73 73 72 71 70 71 72 71 69 69 70 70 70 73 72 73 74 74 73 72 72 74 74 69 61 61 55 55 55
69 69 69 68 66 53 50 48 49 50 51 55 66 54 54 56 57 63 67 68 68 67 66 66 67 67 67 67 65 66 68 66 70 69 70 70 71 72 72 72 72 71 72 74 75 75 74 72 73 72 71 71 72 71 71 69 69 71 71 71 72 73 73 71 71 71 71 71 72 63 57 55 55 55
63 64 63 63 52 49 47 48 50 52 54 61 53 52 54 57 61 67 67 67 69 69 67 67 67 68 67 67 67 67 68 67 70 69 69 71 71 71 72 72 72 72 73 73 73 74 74 74 73 74 75 72 72 70 69 70 71 71 70 73 73 71 71 71 71 71 71 73 72 75 71 68 64 61
60 59 52 50 50 51 51 51 51 58 63 59 55 56 57 64 68 69 69 68 69 67 66 65 66 66 66 66 66 69 70 71 70 70 69 70 71 71 72 72 72 73 70 70 72 73 74 73 73 74 74 74 72 72 70 71 71 70 71 71 70 71 72 73 73 72 73 72 72 72 71 71 71 66
57 55 53 53 53 55 57 68 68 65 66 63 60 59 63 68 67 66 66 67 67 66 65 64 64 64 65 65 68 71 71 70 69 69 70 69 68 69 69 68 69 70 68 69 69 71 72 73 74 75 74 73 73 72 71 70 71 71 71 70 71 72 72 72 72 73 72 73 73 73 73 72 72 72
62 63 62 61 58 57 57 58 60 61 62 64 67 67 67 65 63 65 67 66 66 66 65 64 64 65 66 68 69 69 69 69 70 71 69 68 68 69 69 70 69 68 69 69 69 69 70 71 73 74 73 73 72 72 73 72 71 70 70 71 71 70 70 72 73 73 73 73 74 73 74 75 73 73
62 63 64 62 65 67 67 65 64 63 65 63 62 62 62 61 63 64 65 66 68 67 66 66 66 67 68 66 66 65 65 66 67 68 67 67 67 67 68 69 68 68 69 69 69 71 71 72 73 74 74 74 72 73 72 72 71 70 69 70 70 71 71 71 71 72 75 75 74 73 77 77 75 73
63 65 65 64 64 64 62 60 61 60 62 62 62 62 63 60 62 63 63 63 64 63 63 64 64 63 64 65 64 65 63 64 64 67 67 68 67 66 65 64 64 65 65 65 66 66 67 66 69 71 76 75 75 74 72 71 71 71 69 69 70 70 70 72 73 75 77 75 73 72 72 73 73 73
62 61 57 56 54 54 56 56 58 57 58 59 58 60 60 60 59 61 61 61 60 62 62 62 61 62 62 61 61 62 61 62 62 63 62 65 65 64 61 60 61 63 64 65 64 64 65 66 66 66 68 70 72 74 74 72 70 70 70 70 71 71 71 73 73 73 74 74 73 71 71 71 72 73
63 57 56 55 56 57 57 57 56 58 57 58 57 57 57 58 59 59 58 59 60 60 60 59 58 59 59 59 58 57 57 59 59 59 61 62 62 61 59 59 59 60 60 61 62 63 63 64 65 64 65 65 65 68 68 73 72 71 71 70 71 71 71 72 72 72 74 74 75 73 71 71 71 72
58 57 56 55 56 57 56 57 58 57 58 59 59 58 57 58 60 59 61 61 61 59 56 56 57 56 56 56 57 57 57 57 58 58 58 58 58 58 58 58 58 58 60 60 60 60 59 58 60 62 61 61 61 60 61 67 71 69 64 61 61 66 67 67 67 66 67 69 73 73 71 70 71 71
55 57 56 56 57 56 56 58 57 59 61 61 61 60 60 59 59 60 62 61 59 58 57 57 55 55 55 56 55 54 54 56 55 56 56 56 57 58 57 57 58 59 59 59 59 59 57 55 54 56 60 59 59 58 58 64 66 69 63 57 61 60 62 62 62 62 62 64 68 70 74 71 70 70
56 55 55 55 55 56 58 60 60 60 60 59 59 59 58 58 58 58 60 59 56 56 55 55 54 55 55 55 54 54 54 54 54 55 55 55 54 55 55 55 56 56 56 57 57 56 56 55 55 54 54 54 55 56 56 58 57 55 59 62 57 58 59 60 58 58 60 62 62 64 65 67 69 70
53 53 53 53 54 59 58 58 58 58 58 57 57 57 58 57 56 57 57 55 56 55 54 54 54 54 53 54 54 53 53 54 54 54 54 54 54 55 55 54 54 55 55 53 53 54 56 56 55 56 54 54 57 56 54 51 52 53 55 57 60 59 58 58 56 57 59 59 60 61 62 67 65 63
53 53 54 56 56 56 56 57 55 56 56 56 56 56 56 56 55 55 54 53 54 55 54 52 53 51 53 52 52 52 53 54 53 53 53 53 53 53 54 54 53 53 53 52 53 53 54 54 55 56 58 57 56 55 56 56 57 59 61 62 55 61 63 59 58 59 58 57 57 58 58 58 59 63
53 53 54 54 55 54 54 54 53 54 54 54 55 55 54 55 54 54 53 52 54 53 50 50 51 53 51 51 53 52 52 52 52 51 52 52 52 53 52 52 52 52 52 52 52 52 52 54 57 57 60 58 59 61 59 57 56 55 54 54 51 53 55 60 65 60 57 61 59 58 58 58 56 55
53 53 53 53 53 53 52 53 53 53 52 52 52 52 53 54 53 53 51 52 53 53 50 48 49 49 49 50 50 50 50 50 50 50 51 51 51 51 50 50 50 50 51 50 52 52 53 56 56 57 57 56 55 55 53 53 54 53 54 54 55 52 52 53 54 59 69 62 60 59 58 56 53 51
51 51 51 51 52 51 51 51 51 51 50 50 50 51 51 51 50 50 50 50 51 50 49 49 49 49 49 50 50 51 50 50 50 51 50 51 49 49 49 49 49 50 51 51 51 52 53 55 55 53 53 52 52 53 51 52 53 53 54 52 52 52 55 53 54 54 55 58 61 63 62 57 55 53
50 50 49 49 49 50 50 50 49 49 50 49 48 48 48 48 48 48 48 48 47 47 48 48 48 48 49 49 49 49 49 48 49 49 47 47 49 49 50 49 49 50 49 49 49 50 51 51 53 52 51 51 51 51 51 51 50 51 53 53 55 56 55 55 57 55 55 56 56 57 58 60 61 59
49 48 48 48 48 49 49 48 49 48 47 47 47 47 47 47 46 46 47 48 47 47 48 47 47 48 47 48 47 47 48 47 46 46 47 48 48 47 48 48 47 48 48 48 48 49 49 52 52 52 52 51 52 52 52 52 51 51 52 52 52 53 52 51 52 52 54 55 55 56 57 57 58 59